Location: Bouchani�res
(44.1167°N, 6.8667°E)
Time: 15:49:22
(UTC+00:00)

Daily predictions for brighter satellites

Satellite Brightness Start Highest point End
(mag) Time Altitude Azimuth Time Altitude Azimuth Time Altitude Azimuth
USA 215 3.7 17:48:19 10° E 17:54:36 51° NNE 18:00:54 10° NW
BREEZE-M DEB (TANK) 4.4 17:47:39 10° WNW 17:55:39 38° SW 17:58:40 10° SSE
COSMO-SKYMED 1 2.9 17:52:33 10° N 17:56:54 75° WNW 18:01:13 10° SSW
Cosmos 1842 3.2 17:53:31 10° N 17:57:28 69° E 18:01:22 10° SSE
Spot 2 4.0 17:54:17 10° SSE 17:58:35 82° ENE 18:02:44 10° NNW
Cosmos 968 Rocket 3.7 17:58:02 10° SSW 18:03:17 82° WNW 18:08:36 10° NNE
CZ-4B R/B 2.6 18:01:16 10° NE 18:03:32 19° E 18:05:49 10° SE
CZ-4C R/B 4.0 18:04:18 10° N 18:07:49 54° WNW 18:11:19 10° SSW
Cosmos 2221 Rocket 3.6 18:04:24 10° N 18:08:50 87° W 18:13:14 10° S
Cosmos 2082 Rocket 2.5 18:05:46 10° NNW 18:11:30 73° WSW 18:17:08 10° SSE
Lacrosse 5 rocket 2.7 18:08:20 10° NW 18:12:26 31° NNE 18:16:05 12° E
CZ-4 R/B 1.2 18:09:00 10° SSE 18:12:49 72° ENE 18:16:39 10° N
Okean 2 3.4 18:10:02 10° N 18:14:03 56° E 18:18:03 10° SSE
Cosmos 1733 Rocket 3.1 18:10:00 10° S 18:14:18 82° W 18:18:39 10° N
Cosmos 1975 2.7 18:13:28 10° S 18:17:26 86° E 18:21:26 10° N
Feng Yun 1-1 Rocket 4.3 18:12:16 10° SSE 18:17:40 81° WSW 18:23:06 10° NNW
Cosmos 1503 Rocket 4.1 18:13:50 10° S 18:18:52 53° ESE 18:23:55 10° NNE
HJ-1C 3.2 18:16:27 10° SSE 18:19:41 67° ENE 18:22:57 10° N
H-2A R/B 1.9 18:17:32 10° NNE 18:21:46 73° ESE 18:25:53 10° S
ARGOS 3.6 18:16:42 10° S 18:22:01 68° WSW 18:27:23 10° NNW
Lacrosse 4 Rocket 4.1 18:19:21 10° W 18:22:18 19° NW 18:25:17 10° N
Geosat 3.9 18:20:05 10° NNE 18:25:08 79° ESE 18:30:09 10° SSW
USA 276 3.0 18:26:12 10° W 18:29:13 45° NNW 18:32:02 12° NE
Okean-O 2.6 18:25:53 10° SSE 18:30:15 64° ENE 18:34:39 10° N
Cosmos 1400 Rocket 3.0 18:27:08 10° S 18:31:07 52° E 18:35:05 10° NNE
SJ-6B 4.0 18:29:28 16° ESE 18:31:42 25° ENE 18:35:06 10° NNE
Cosmos 1943 Rocket 2.1 18:26:23 10° SSW 18:31:52 67° ESE 18:37:27 10° NNE
Cosmos 2278 Rocket 4.2 18:27:13 10° WSW 18:32:11 31° NW 18:37:12 10° N
Cosmos 1354 Rocket 4.0 18:29:02 10° S 18:34:12 61° ESE 18:39:23 10° NNE
Cosmos 2074 Rocket 3.9 18:28:23 10° S 18:34:36 78° E 18:40:54 10° N
Cosmos 2369 Rocket 2.7 18:31:21 10° SSE 18:36:23 34° ESE 18:41:26 10° NE
DMSP B5D1-3 4.5 18:32:45 10° NNE 18:37:53 89° ESE 18:42:59 10° SSW
CZ-2C R/B 3.8 18:36:33 10° N 18:41:50 48° WNW 18:47:09 10° SW
Cosmos 2297 3.7 18:36:13 10° SSW 18:41:54 88° ESE 18:47:40 10° NNE
BREEZE-M DEB (TANK) 4.0 18:32:27 10° WSW 18:42:25 68° NNW 18:45:09 15° ENE
OBJECT-B 1.4 18:42:53 28° ESE 18:43:51 35° ENE 18:46:47 10° N
Cosmos 1025 Rocket 4.3 18:43:05 10° NNE 18:46:25 21° ENE 18:46:45 21° ENE
Resurs 01 Rocket 3.5 18:46:34 14° ENE 18:46:34 14° ENE 18:48:50 10° NNE
Cosmos 1805 4.0 18:45:05 21° SE 18:46:48 30° E 18:50:13 10° NNE
CSL-04 Debris 4.1 18:42:51 10° SSE 18:48:15 79° ENE 18:53:40 10° NNW
Cosmos 1975 Rocket 3.6 18:46:26 10° N 18:50:35 37° ENE 18:52:26 26° ESE
PSLV R/B 3.9 18:47:21 10° NNE 18:51:28 58° E 18:55:31 10° S
USA 186 1.8 18:51:22 41° E 18:51:42 43° ENE 18:54:36 10° N
COSMOS 2455 2.9 18:51:04 10° NNW 18:57:08 82° WSW 19:02:30 13° SSE
Cosmos 1707 3.7 18:54:40 10° NNW 18:58:28 49° W 19:02:13 10° S
Resurs 1-3 4.4 18:57:48 28° E 18:58:30 30° ENE 19:02:19 10° N
Cosmos 1184 Rocket 3.8 18:55:41 10° N 18:58:00 29° NE 18:58:00 29° NE
Meteor 1-12 Rocket 4.4 18:52:59 10° S 18:58:50 57° E 19:04:41 10° NNE
Atlas Centaur 2 4.1 18:53:45 10° SW 19:00:36 28° S 19:04:05 21° SE
ISS -1.9 18:57:55 10° WNW 19:00:52 27° NNW 19:02:48 16° NE
Cosmos 1674 2.4 18:58:20 10° N 19:02:03 77° E 19:04:12 24° SSE
CZ-3 Stage 3 4.3 18:32:46 10° SW 19:03:01 36° S 19:08:07 22° SE
Cosmos 2263 4.5 18:58:04 10° S 19:03:15 40° ESE 19:08:27 10° NE
Cosmos 773 Rocket 3.9 19:00:51 10° NNW 19:06:07 77° ENE 19:09:30 23° SSE
Cosmos 1908 Rocket 4.1 19:03:26 10° SSW 19:07:51 61° W 19:12:18 10° N
SeaSat 1 2.4 19:08:11 28° SE 19:10:49 76° ENE 19:15:46 10° NNW
KORONAS-FOTON 3.9 19:09:14 10° NNW 19:13:01 74° W 19:15:21 22° S
Cosmos 1656 Rocket 3.7 19:11:11 10° S 19:16:33 50° ESE 19:21:52 10° NE
Cosmos 962 Rocket 4.4 19:12:26 10° S 19:18:35 66° E 19:24:40 10° NNE
Cosmos 1346 Rocket 2.7 19:17:55 10° N 19:21:57 87° WSW 19:23:11 44° S
USA 281 3.7 19:16:09 10° NE 19:21:34 34° E 19:21:34 34° E
Cosmos 1733 3.0 19:24:41 76° ESE 19:24:45 77° E 19:28:34 10° NNE
Cosmos 1626 2.0 19:23:21 10° N 19:27:04 84° W 19:27:24 72° SSW
Cosmos 1461 4.4 19:24:28 10° NW 19:27:57 29° WSW 19:29:55 19° SSW
ATLAS CENTAUR R/B 2.2 19:23:24 10° NW 19:28:01 56° WSW 19:30:02 32° S
Ariane Rocket 3.1 19:30:42 50° E 19:31:14 53° ENE 19:36:11 10° N
SJ 16-02 1.2 19:30:12 10° SSW 19:34:36 85° ESE 19:39:04 10° NNE
CZ-4B R/B 4.0 19:33:13 10° NNW 19:35:32 20° WNW 19:37:50 10° WSW
USA 215 3.6 19:34:11 30° SSE 19:37:32 60° SW 19:44:01 10° NW
Landsat 7 4.4 19:39:17 42° NE 19:39:17 42° NE 19:43:11 10° N
Cosmos 1538 Rocket 3.9 19:35:41 10° NNW 19:41:04 76° ENE 19:41:54 62° SE
Sich 1 Rocket 3.7 19:44:12 65° NE 19:44:12 65° NE 19:48:09 10° NNE
Meteor 2-20 4.3 19:44:11 10° N 19:50:19 83° E 19:51:55 52° SSE
SL-8 Rocket 3.9 19:47:13 27° S 19:50:50 80° E 19:57:10 10° N
Lacrosse 5 rocket 1.9 19:47:25 10° NW 19:51:42 58° WSW 19:51:42 58° WSW
SPOT 3 Rocket 4.2 19:52:55 41° NE 19:52:55 41° NE 19:56:55 10° N
Meteor 2-10 4.2 19:55:23 62° ENE 19:55:23 62° ENE 20:00:20 10° NNE
BREEZE-M DEB (TANK) 4.4 19:35:26 10° WNW 19:55:03 82° SSW 19:56:49 54° SE
Meteor 1-24 Rocket 3.7 19:51:50 10° N 19:56:39 61° NE 19:56:39 61° NE
Cosmos 1315 Rocket 3.7 19:58:58 49° WNW 19:58:58 49° WNW 20:02:41 10° N
Cosmos 2297 Rocket 4.2 19:55:51 10° N 19:58:26 14° NE 19:58:26 14° NE
MOS 1 4.3 19:57:42 53° S 19:59:04 78° WSW 20:04:48 10° NNW
IRS-1A Rocket 4.3 19:58:33 54° S 19:59:57 80° WSW 20:05:53 10° NNW
Cosmos 1339 Rocket 4.4 19:53:55 10° N 20:00:09 81° W 20:01:58 48° S
Cosmos 1727 Rocket 4.2 19:59:55 10° N 20:05:38 56° ENE 20:05:38 56° ENE
APEX 4.4 20:01:42 10° NNW 20:05:18 45° NNW 20:05:18 45° NNW
Helios 1A Rocket 4.0 20:08:36 42° W 20:08:36 42° W 20:12:05 10° NNW
EO 1 Delta rocket 4.4 20:11:20 53° WSW 20:11:47 55° W 20:16:56 10° NNW
Cosmos 1833 4.1 20:06:37 10° NNW 20:12:13 79° WSW 20:12:13 79° WSW
Cosmos 158 Rocket 4.2 20:08:25 10° NNW 20:12:55 63° WNW 20:12:55 63° WNW
OBJECT-B 4.0 20:15:47 11° W 20:16:05 11° W 20:17:14 10° WNW
Meteor 2-20 Rocket 4.3 20:10:48 10° N 20:16:58 85° W 20:17:10 82° SW
Cosmos 2369 Rocket 3.5 20:15:05 10° SW 20:20:20 38° WNW 20:25:36 10° NNE
Cosmos 2227 Rocket 4.3 20:17:36 10° N 20:19:56 15° NNE 20:19:56 15° NNE
Resurs 01 Rocket 2.9 20:24:08 37° NNW 20:24:08 37° NNW 20:26:54 10° NNW
SPOT 1/Viking Rocket 4.4 20:30:21 44° N 20:30:21 44° N 20:33:52 10° NNW
Cosmos 2366 rocket 4.3 20:31:39 50° SW 20:32:53 61° W 20:38:59 10° N
NOSS 3-3 (A) 4.4 20:27:04 10° NW 20:34:38 75° NE 20:34:58 74° ENE
NOSS 3-3 (C) 4.4 20:27:10 10° NW 20:34:43 74° NE 20:35:03 73° ENE
ISS -0.2 20:35:39 10° NW 20:35:48 11° NW 20:35:48 11° NW
Atlas Centaur 2 4.4 20:42:22 10° WSW 20:46:40 24° SW 20:46:40 24° SW
Terra 4.3 20:58:40 16° N 20:58:40 16° N 20:59:40 10° N
USA 281 3.9 21:00:22 10° NNE 21:06:41 50° WNW 21:08:20 41° W
SJ 16-02 4.5 21:12:10 10° WNW 21:13:50 12° NW 21:15:31 10° NNW
CENTAUR R/B 4.4 21:45:13 25° NNE 21:45:13 25° NNE 21:48:17 10° NNE
Cosmos 2297 Rocket 4.3 21:38:16 10° NNW 21:40:14 22° NNW 21:40:14 22° NNW
